Date,TemperatureHighF,TemperatureAvgF,TemperatureLowF,DewpointHighF,DewpointAvgF,DewpointLowF,HumidityHigh,HumidityAvg,HumidityLow,PressureMaxIn,PressureMinIn,WindSpeedMaxMPH,WindSpeedAvgMPH,GustSpeedMaxMPH,PrecipitationSumIn
2013-1-1,79.2,66.4,55.8,61.1,55.3,50.8,97,71,38,30.25,30.08,20,4,20,0.00
2013-1-2,77.9,67.1,60.4,69.5,64.0,59.3,100,91,66,30.11,30.03,13,3,13,0.00
2013-1-3,82.2,68.3,59.5,70.4,64.1,58.4,100,88,47,30.17,30.05,16,4,16,0.05
2013-1-4,69.6,62.0,58.5,62.8,60.1,58.3,100,94,71,30.30,30.15,16,7,16,0.02
2013-1-5,81.9,67.3,59.0,63.7,60.7,58.3,100,82,48,30.31,30.19,15,5,15,0.00
2013-1-6,82.4,70.0,63.7,71.6,66.4,63.1,100,89,63,30.24,30.09,14,5,14,0.00
2013-1-7,73.2,66.7,62.4,67.6,62.3,57.9,100,87,60,30.22,30.12,16,7,16,0.02
2013-1-8,86.7,72.1,61.9,69.3,64.5,59.5,100,79,46,30.24,30.13,12,5,12,0.00
2013-1-9,89.6,76.5,69.8,73.3,67.5,58.2,100,77,35,30.31,30.19,17,6,17,0.00
2013-1-10,87.1,75.4,66.6,71.2,63.5,51.7,100,71,32,30.32,30.21,21,6,21,0.00
2013-1-11,87.3,73.4,64.6,68.2,62.3,53.5,99,72,34,30.30,30.15,21,5,21,0.00
2013-1-12,70.7,69.0,64.6,69.3,66.0,64.6,100,91,86,30.22,30.16,8,4,8,0.00
2013-1-13,70.7,70.7,70.7,66.3,66.3,66.3,86,86,86,30.20,30.20,4,4,6,0.00
2013-1-14,84.9,71.4,62.8,66.3,62.4,47.2,87,76,28,30.25,30.15,16,4,16,1.43
2013-1-15,81.3,69.7,59.9,66.4,61.5,54.5,100,78,43,30.19,30.09,15,3,15,0.00
2013-1-16,81.7,71.5,63.7,68.6,63.1,50.3,100,78,36,30.15,30.05,17,4,17,0.01
2013-1-17,77.4,65.2,58.5,74.0,59.4,43.4,100,83,51,30.18,30.05,27,8,27,0.01
2013-1-18,69.4,57.3,42.6,57.0,42.9,29.4,88,61,32,30.33,30.17,21,9,21,0.00
2013-1-19,77.0,65.1,53.8,61.2,56.1,50.7,93,74,48,30.30,30.15,18,7,18,0.01
2013-1-20,79.9,68.3,61.7,62.8,61.2,59.6,96,79,52,30.20,30.07,11,4,11,0.00
2013-1-21,78.1,66.5,61.0,63.4,57.5,49.1,84,73,55,30.15,30.06,21,4,21,0.00
2013-1-22,69.4,61.1,53.6,50.6,36.8,23.9,72,43,28,30.33,30.10,24,5,24,0.04
2013-1-23,77.9,58.5,46.4,43.8,36.1,23.3,74,46,28,30.53,30.29,14,4,14,0.00
2013-1-24,77.5,59.8,45.3,51.5,41.6,32.0,89,56,28,30.39,30.27,16,4,16,0.00
2013-1-25,77.0,62.0,50.4,55.8,48.3,38.3,100,68,28,30.36,30.24,13,3,13,0.00
2013-1-26,79.7,62.9,48.6,59.2,50.8,39.9,100,71,28,30.32,30.21,14,3,14,0.00
2013-1-27,82.8,67.3,55.0,59.3,50.8,37.6,100,63,28,30.33,30.24,15,5,15,0.01
2013-1-28,85.8,70.3,61.7,62.3,57.8,50.6,90,68,31,30.35,30.24,16,4,16,0.00
2013-1-29,83.1,70.6,60.6,67.4,63.1,57.2,100,79,43,30.28,30.14,20,6,20,0.00
2013-1-30,79.5,72.5,65.7,68.6,65.4,61.8,96,80,56,30.14,29.97,28,11,28,0.01
2013-1-31,70.7,61.1,48.2,68.9,42.9,23.4,100,57,28,30.29,29.97,22,5,22,0.07
2013-2-1,75.2,56.1,42.3,39.9,31.8,20.7,72,42,28,30.40,30.25,22,5,22,0.00
2013-2-2,77.0,59.4,45.5,47.6,38.8,28.7,77,50,28,30.33,30.19,14,5,14,0.00
2013-2-3,73.9,58.5,43.5,53.1,44.5,35.6,92,64,28,30.25,30.14,14,3,14,0.00
2013-2-4,72.1,57.4,50.0,48.2,41.6,31.4,93,63,28,30.24,30.08,15,3,15,0.01
2013-2-5,75.9,62.3,49.3,55.7,42.6,32.8,88,53,28,30.11,30.01,15,4,15,0.00
2013-2-6,79.7,66.8,55.2,62.6,55.4,47.2,92,71,34,30.14,30.04,15,4,15,0.00
2013-2-7,79.5,69.9,61.7,68.1,62.8,55.4,100,80,44,30.10,29.89,28,8,28,0.11
2013-2-8,80.1,70.2,59.5,68.6,61.5,50.1,100,77,38,30.11,29.92,24,6,24,0.00
2013-2-9,83.7,67.3,56.3,57.2,51.0,40.8,100,63,28,30.21,30.07,18,6,18,0.00
2013-2-10,84.4,70.2,61.9,60.4,56.7,46.4,85,65,28,30.27,30.16,21,7,21,0.00
2013-2-11,81.0,70.4,60.6,67.4,62.6,58.6,98,78,51,30.23,30.12,21,7,21,0.00
2013-2-12,80.4,72.5,64.6,71.5,68.4,64.6,100,88,66,30.14,29.99,21,7,21,0.00
2013-2-13,78.3,71.4,63.3,74.5,68.5,52.1,100,91,64,30.03,29.91,24,8,24,0.00
2013-2-14,72.1,63.1,59.7,62.3,58.5,53.3,100,86,52,30.40,29.97,17,3,17,0.22
2013-2-15,77.4,63.1,58.8,61.6,57.1,51.4,100,83,46,30.26,30.15,11,3,11,0.07
2013-2-16,69.6,59.8,52.0,53.6,44.4,25.5,94,60,28,30.32,30.12,28,7,28,0.01
2013-2-17,60.4,49.8,40.8,28.8,20.7,10.4,61,32,28,30.53,30.31,27,7,27,0.00
2013-2-18,72.9,55.1,37.0,42.7,31.1,16.0,69,43,28,30.53,30.39,21,6,21,0.00
2013-2-19,76.5,64.4,50.9,61.5,51.8,42.6,96,66,39,30.39,30.28,20,5,20,0.00
2013-2-20,81.5,67.7,57.9,67.2,61.0,57.4,100,81,46,30.30,30.20,14,3,14,0.00
2013-2-21,81.3,69.9,59.5,64.9,60.9,55.7,97,75,45,30.29,30.18,18,6,18,0.00
2013-2-22,81.3,72.0,63.1,70.6,66.7,62.4,100,85,60,30.26,30.19,24,7,24,0.00
2013-2-23,81.1,73.6,68.0,75.3,70.6,67.5,100,91,71,30.21,30.10,24,8,24,0.00
2013-2-24,79.9,71.9,67.6,74.7,70.0,67.7,100,94,69,30.17,30.09,15,5,15,0.00
2013-2-25,83.3,73.8,66.0,73.1,70.0,66.0,100,89,68,30.11,29.98,23,6,23,0.01
2013-2-26,78.1,72.7,67.6,74.4,69.9,63.1,100,91,68,30.10,29.91,28,9,28,0.14
2013-2-27,75.9,67.9,59.4,66.1,56.1,50.8,94,68,43,30.39,30.07,11,4,11,0.01
2013-2-28,74.7,65.6,56.8,58.4,50.6,41.7,92,61,35,30.21,30.12,16,4,16,0.00
2013-3-1,67.1,60.4,56.8,46.5,38.5,28.7,64,45,29,30.22,30.11,17,6,17,0.00
2013-3-2,62.6,56.1,48.7,40.9,34.1,28.3,72,44,29,30.25,30.17,21,6,21,0.01
2013-3-3,58.6,51.7,41.0,35.3,29.8,20.2,53,43,28,30.35,30.17,24,8,24,0.00
2013-3-4,67.8,53.9,40.1,40.9,32.3,20.8,81,47,28,30.42,30.30,15,4,15,0.00
2013-3-5,72.9,59.5,42.4,62.8,48.8,38.5,92,70,43,30.36,30.25,17,5,17,0.00
2013-3-6,67.1,61.8,53.4,65.7,44.4,28.7,97,57,28,30.33,30.17,23,9,23,0.07
2013-3-7,64.4,54.0,43.9,43.4,33.1,20.8,81,48,28,30.41,30.31,20,5,20,0.00
2013-3-8,75.6,58.1,44.6,46.7,40.8,30.0,93,59,28,30.42,30.31,14,5,14,0.00
2013-3-9,77.9,63.6,48.7,49.4,42.7,35.1,89,51,28,30.40,30.30,16,5,16,0.00
2013-3-10,80.1,66.8,56.8,54.0,48.1,41.0,78,54,28,30.35,30.23,17,6,21,0.00
2013-3-11,78.3,68.5,59.0,61.8,55.8,49.9,87,66,39,30.29,30.11,21,8,21,0.00
2013-3-12,71.1,66.0,58.8,68.2,59.5,48.1,100,80,60,30.24,30.05,27,8,27,0.25
2013-3-13,77.2,65.4,50.4,51.1,39.6,28.4,90,43,28,30.39,30.22,19,6,19,0.00
2013-3-14,70.2,59.9,51.4,47.2,33.8,20.7,66,39,28,30.45,30.34,20,6,20,0.00
2013-3-15,75.4,57.8,42.3,43.6,37.4,27.5,91,52,28,30.48,30.35,16,4,16,0.00
2013-3-16,72.0,59.6,44.6,53.0,45.6,38.2,89,63,33,30.38,30.27,20,4,20,0.00
2013-3-17,77.5,64.4,52.2,56.8,53.5,48.3,100,71,39,30.31,30.19,15,4,15,0.00
2013-3-18,78.3,68.0,61.0,69.5,63.1,55.3,100,85,60,30.23,30.05,22,6,22,0.09
2013-3-19,85.1,71.1,64.0,72.2,64.1,55.9,100,81,39,30.20,30.07,16,4,18,0.00
2013-3-20,75.6,66.6,59.5,65.8,60.8,48.4,100,84,40,30.19,30.00,30,7,30,0.31
2013-3-21,73.6,61.8,49.6,61.4,43.6,28.7,100,59,28,30.18,30.06,16,4,16,0.01
2013-3-22,79.7,62.5,46.2,70.9,50.9,32.6,100,69,28,30.19,30.07,16,5,16,0.27
2013-3-23,79.2,72.5,67.3,76.0,70.7,67.3,100,95,80,30.16,29.99,25,7,25,0.00
2013-3-24,78.6,72.4,69.8,76.0,71.8,69.8,100,98,84,30.02,29.86,30,10,30,0.30
2013-3-25,70.3,65.6,58.3,70.4,46.9,28.9,100,55,28,30.25,29.95,21,8,21,0.00
2013-3-26,62.4,56.8,48.7,41.9,30.3,20.2,53,37,28,30.44,30.23,27,9,27,0.00
2013-3-27,59.2,53.3,41.7,34.0,26.6,20.1,69,37,28,30.51,30.40,14,3,14,0.00
2013-3-28,72.0,61.2,52.5,37.1,29.2,25.8,49,30,28,30.51,30.07,18,4,18,0.00
2013-3-29,79.7,61.3,46.4,49.4,39.9,32.6,80,50,28,30.19,30.08,16,4,16,0.00
2013-3-30,75.0,63.3,51.3,53.6,45.8,37.4,81,57,28,30.12,30.01,21,5,21,0.00
2013-3-31,78.3,67.8,60.3,61.8,53.8,44.8,84,64,32,30.21,30.03,20,4,20,0.00
2013-4-1,78.3,71.2,65.8,70.2,67.0,61.3,100,87,73,30.06,29.98,17,6,17,0.00
2013-4-2,80.8,71.0,63.0,72.2,61.8,52.2,100,76,42,30.11,30.01,12,3,12,0.01
2013-4-3,84.6,72.1,62.4,71.2,64.6,58.8,100,80,44,30.09,29.96,24,7,24,0.00
2013-4-4,71.8,69.3,65.5,71.6,68.5,64.6,100,97,81,30.08,29.86,21,4,21,1.38
2013-4-5,75.4,68.9,63.0,69.6,60.7,51.5,100,77,46,29.99,29.83,22,8,22,0.09
2013-4-6,77.5,66.3,58.8,59.1,53.1,44.5,82,64,32,30.11,29.99,17,6,17,0.00
2013-4-7,84.0,71.5,60.1,62.3,55.0,45.1,99,61,28,30.16,30.03,19,5,19,0.01
2013-4-8,87.6,73.9,64.4,62.9,56.7,45.8,84,59,28,30.14,30.04,15,5,15,0.00
2013-4-9,84.9,74.1,63.5,64.4,58.5,47.3,94,61,28,30.16,30.06,17,6,17,0.00
2013-4-10,86.9,76.4,64.2,67.8,62.9,57.6,98,65,38,30.12,29.98,15,6,15,0.01
2013-4-11,86.0,77.4,70.5,73.8,69.9,61.7,100,79,52,30.01,29.83,21,9,27,0.00
2013-4-12,81.5,77.4,73.6,75.8,73.9,68.3,100,89,79,29.94,29.84,23,10,23,0.00
2013-4-13,87.3,76.8,69.1,74.2,67.5,62.0,100,75,46,30.00,29.88,11,3,11,0.00
2013-4-14,84.9,76.7,69.8,75.0,69.9,60.3,100,80,58,30.03,29.87,24,8,24,0.00
2013-4-15,88.2,76.7,68.4,70.4,63.0,57.9,87,64,42,30.09,29.96,14,4,14,0.00
2013-4-16,92.8,78.9,69.6,75.1,69.2,62.6,100,75,41,30.15,30.03,15,5,15,0.06
2013-4-17,91.8,78.5,68.5,71.5,62.4,50.2,98,63,28,30.15,30.03,15,6,15,0.00
2013-4-18,87.6,77.5,68.2,73.4,66.6,58.6,95,71,39,30.07,29.97,20,7,20,0.00
2013-4-19,85.5,78.4,71.2,75.6,72.3,69.9,100,83,62,30.03,29.95,27,8,27,0.00
2013-4-20,81.9,74.7,69.8,76.0,66.5,60.6,100,77,50,30.14,29.98,16,6,16,0.00
2013-4-21,90.0,74.0,61.7,68.8,63.0,55.3,96,72,32,30.12,30.01,15,7,15,0.02
2013-4-22,87.8,74.4,67.6,72.8,67.0,60.4,100,80,45,30.11,29.98,21,5,21,0.43
2013-4-23,88.9,75.6,66.7,66.3,59.8,48.7,93,63,28,30.11,30.01,17,7,17,0.00
2013-4-24,70.3,67.3,64.9,61.2,60.0,58.4,87,78,66,30.12,30.09,11,6,14,0.00
2013-4-25,82.4,75.2,64.8,68.4,63.6,53.2,95,69,39,30.22,30.10,14,5,14,0.00
2013-4-26,86.0,76.1,64.6,70.2,61.8,49.1,93,64,29,30.26,30.16,11,4,11,0.00
2013-4-27,88.2,76.6,67.3,69.2,62.3,50.2,100,64,28,30.23,30.09,12,6,12,0.00
2013-4-28,86.5,77.2,65.5,66.1,62.7,49.6,90,62,28,30.13,29.98,14,4,14,0.00
2013-4-29,84.7,76.5,67.3,72.4,64.3,57.6,88,67,46,30.04,29.92,19,6,19,0.00
2013-4-30,84.9,72.3,68.5,70.6,68.3,66.5,99,88,55,30.01,29.94,11,4,11,0.00